[[[{"header":{"parameterUnit":"kt","parameterCategory":2,"dx":1,"dy":1,"la1":30.253999710083008,"la2":30.299108505249023,"lo1":-89.0895004272461,"lo2":-89.04439544677734,"nx":28,"ny":28,"refTime":"2022-10-10T21:00:00:Z","depth":0,"parameterNumber":1,"parameterNumberName":"U-component_of_WINDS"},"data":[-3.0952,-3.1001,-3.0991,-3.1042,-3.1042,-3.1075,-3.1084,-3.1094,-3.1099,-3.1138,-3.1158,-3.1152,-3.1153,-3.1175,-3.1196,-3.1193,-3.1202,-3.1228,-3.1219,-3.1113,-3.1097,-3.1082,-3.1069,-3.1231,-3.1231,-3.1331,-3.1331,-3.1332,-3.0881,-3.0881,-3.0905,-3.0921,-3.0941,-3.0911,-3.0921,-3.0939,-3.0969,-3.0976,-3.0994,-3.1027,-3.1051,-3.1042,-3.1063,-3.1086,-3.1071,-3.1092,-3.1089,-3.1089,-3.0975,-3.0962,-3.1104,-3.1103,-3.1103,-3.1103,-3.1103,-3.1103,-3.0747,-3.0776,-3.0779,-3.0804,-3.0809,-3.0819,-3.0845,-3.0836,-3.0859,-3.0879,-3.0861,-3.0894,-3.0897,-3.0916,-3.0919,-3.0945,-3.0919,-3.0937,-3.0942,-3.0946,-3.0953,-3.0812,-3.0948,-3.0947,-3.0947,-3.0946,-3.0946,0,-3.0644,-3.0634,-3.0654,-3.0673,-3.069,-3.0702,-3.0711,-3.0727,-3.0698,-3.0717,-3.0744,-3.0758,-3.0785,-3.0808,-3.0825,-3.0823,-3.079,-3.0786,-3.0798,-3.0806,-3.0813,-3.0809,-3.0624,-3.078,-3.0779,-3.0778,-3.0777,-3.0777,-3.0507,-3.0542,-3.0538,-3.0554,-3.0555,-3.0582,-3.0595,-3.0565,-3.0581,-3.0587,-3.0614,-3.0638,-3.0654,-3.0699,-3.0686,-3.0705,-3.0689,-3.075,-3.0691,-3.0699,-3.0688,-3.0686,-3.0689,-3.0761,-3.0763,-3.0765,-3.0766,0,-3.0431,-3.0411,-3.046,-3.0451,-3.045,-3.0488,-3.048,-3.0508,-3.0494,-3.053,-3.0537,-3.0515,-3.0542,-3.0518,-3.0543,-3.053,-3.0593,-3.0577,-3.0593,-3.0588,-3.064,-3.0635,-3.0813,-3.0835,-3.0668,-3.067,-3.0671,0,-3.0304,-3.035,-3.0317,-3.0346,-3.0398,-3.0365,-3.0417,-3.0409,-3.041,-3.0437,-3.0396,-3.0423,-3.0387,-3.0411,-3.0392,-3.0439,-3.0444,-3.0436,-3.043,-3.0439,-3.0439,-3.0444,-3.0435,-3.0415,-3.0414,-3.0413,-3.0413,0,-3.0185,-3.022,-3.0269,-3.0273,-3.0266,-3.029,-3.0288,-3.0286,-3.0298,-3.0311,-3.0318,-3.0335,-3.0343,-3.0357,-3.0331,-3.0292,-3.0389,-3.0329,-3.038,-3.0381,-3.0401,-3.0399,-3.0566,-3.0411,-3.0411,-3.0411,-3.0411,0,-3.0077,-3.009,-3.0163,-3.0156,-3.0166,-3.0198,-3.0211,-3.0232,-3.0233,-3.0222,-3.0231,-3.0199,-3.0238,-3.0181,-3.0235,-3.0191,-3.0203,-3.0199,-3.0202,-3.0201,-3.0138,-3.0233,-3.0395,-3.041,-3.0206,-3.0204,-3.0202,0,-2.9947,-3.0013,-2.9984,-3.0054,-3.0081,-3.0031,-3.0066,-3.0067,-3.0055,-3.0076,-3.0062,-3.0086,-3.0038,-3.0042,-3.0072,-3.0058,-3.0115,-3.005,-3.0081,-3.0082,-3.0081,-3.023,-3.0259,-3.0363,-3.018,-3.0182,-3.0184,0,-2.9841,-2.983,-2.9844,-2.9847,-2.9842,-2.9864,-2.9904,-2.9919,-2.9935,-2.9941,-2.9973,-3.0006,-2.9971,-2.9977,-2.9951,-2.9984,-3.0076,-2.9941,-2.994,-2.9966,-3.0166,-3.0194,-3.0212,-3.0052,-3.0054,-3.0057,-3.0166,0,-2.9683,-2.9712,-2.9749,-2.9755,-2.9768,-2.9809,-2.978,-2.9797,-2.9771,-2.9756,-2.9802,-2.9795,-2.9809,-2.9822,-2.9796,-2.9878,-2.986,-2.9822,-2.9762,-2.9861,-2.9896,-2.991,-2.9712,-2.971,-2.9708,-2.9707,0,0,-2.9562,-2.9602,-2.9566,-2.9602,-2.961,-2.9555,-2.9601,-2.9603,-2.9606,-2.9613,-2.958,-2.9624,-2.9619,-2.9678,-2.9707,-2.9713,-2.9724,-2.969,-2.9814,-2.9826,-2.9837,-2.9876,-2.9891,-2.9704,-2.9704,-2.9703,-2.9703,0,-2.9496,-2.9492,-2.9538,-2.9538,-2.9536,-2.9516,-2.9528,-2.9515,-2.9507,-2.9551,-2.9503,-2.9527,-2.9563,-2.9563,-2.9568,-2.9683,-2.9645,-2.969,-2.9762,-2.9799,-2.9813,-2.9825,-2.9866,-2.9882,-2.9699,-2.9699,-2.9699,0,-2.9386,-2.9377,-2.9395,-2.941,-2.9407,-2.9435,-2.9366,-2.9398,-2.9418,-2.9353,-2.9397,-2.9389,-2.9386,-2.9446,-2.9471,-2.9441,-2.9575,-2.9526,-2.9536,-2.9537,-2.9571,-2.9589,-2.9604,-2.9402,-2.9401,-2.9401,0,0,-2.9334,-2.9359,-2.9337,-2.9393,-2.9395,-2.9366,-2.9377,-2.935,-2.9349,-2.9349,-2.9335,-2.9336,-2.9356,-2.937,-2.9387,-2.9456,-2.9452,-2.9491,-2.9505,-2.9517,-2.9525,-2.9562,-2.9579,-2.9397,-2.9397,-2.9397,0,0,-2.9308,-2.9284,-2.9257,-2.9318,-2.9318,-2.9299,-2.9335,-2.9301,-2.9312,-2.9304,-2.926,-2.9258,-2.9313,-2.9306,-2.9264,-2.9365,-2.9306,-2.9316,-2.9367,-2.9384,-2.9398,-2.9397,-2.919,0,0,0,0,0,-2.9224,-2.9287,-2.9263,-2.9268,-2.9284,-2.9313,-2.9315,-2.928,-2.924,-2.9269,-2.9253,-2.9211,-2.9274,-2.9236,-2.9242,-2.9288,-2.9353,-2.9361,-2.9368,-2.945,-2.9469,-2.9484,0,0,0,0,0,0,-2.9225,-2.9232,-2.9261,-2.9246,-2.9249,-2.9311,-2.9235,-2.9227,-2.9236,-2.9228,-2.9216,-2.9211,-2.9181,-2.9231,-2.9237,-2.9281,-2.9187,-2.9356,-2.9363,-2.9369,-2.9457,-2.9472,-2.9484,0,0,0,0,0,-2.9227,-2.9232,-2.9267,-2.9244,-2.9247,-2.9217,-2.9232,-2.9225,-2.9231,-2.9205,-2.9199,-2.9204,-2.9184,-2.9186,-2.9234,-2.9279,-2.9183,-2.9185,-2.936,-2.9366,-2.937,-2.9464,0,0,0,0,0,0,-2.9228,-2.9226,-2.9266,-2.9266,-2.9217,-2.9212,-2.921,-2.9224,-2.9208,-2.9202,-2.9192,-2.9185,-2.9186,-2.9187,-2.919,-2.9281,-2.9179,-2.9182,-2.9183,-2.9364,-2.9368,-2.9372,0,0,0,0,0,0,-2.9223,-2.9226,-2.9266,-2.9233,-2.9229,-2.9209,-2.9207,-2.9242,-2.9208,-2.9195,-2.9189,-2.9189,-2.9182,-2.9189,-2.919,-2.9246,-2.9177,-2.9179,-2.9181,-2.9182,-2.9368,-2.9371,0,0,0,0,0,0,-2.9223,-2.9226,-2.9233,-2.923,-2.9226,-2.9218,-2.9239,-2.9257,-2.9181,-2.9196,-2.9173,-2.9169,-2.9185,-2.9186,-2.9191,-2.9247,-2.9246,-2.9177,-2.9178,-2.9179,-2.918,0,0,0,0,0,0,0,-2.9224,-2.9214,-2.9269,-2.9227,-2.9223,-2.9262,-2.9262,-2.9262,-2.918,-2.9177,-2.9174,-2.9171,-2.9164,-2.9166,-2.9169,-2.9247,0,0,-2.9177,-2.9178,0,0,0,0,0,0,0,0,-2.9212,-2.9213,-2.9269,-2.9269,-2.9269,-2.9262,-2.9262,-2.9262,-2.9179,-2.9177,-2.9174,-2.9172,-2.9164,-2.9166,-2.9168,0,0,0,0,0,0,0,0,0,0,0,0,0,0,0,-2.9269,-2.9269,0,-2.9262,-2.9262,-2.9262,-2.9179,-2.9177,-2.9175,-2.9173,-2.9165,-2.9167,-2.9168,0,0,0,0,0,0,0,0,0,0,0,0,0,0,0,0,0,0,0,0,0,0,0,0,0,0,0,0,0,0,0,0,0,0,0,0,0,0,0,0,0,0,0,0,0,0,0,0,0,0,0,0,0,0,0,0,0,0,0,0,0,0,0,0,0,0,0,0,0]}],[{"header":{"parameterUnit":"kt","parameterCategory":2,"dx":1,"dy":1,"la1":30.253999710083008,"la2":30.299108505249023,"lo1":-89.0895004272461,"lo2":-89.04439544677734,"nx":28,"ny":28,"refTime":"2022-10-10T21:00:00:Z","depth":0,"parameterNumber":2,"parameterNumberName":"V-component_of_WINDS"},"data":[-6.3403,-6.3525,-6.3567,-6.3726,-6.3789,-6.3904,-6.3957,-6.4031,-6.4099,-6.4239,-6.4327,-6.4378,-6.446,-6.4573,-6.4668,-6.4688,-6.4725,-6.4741,-6.4762,-6.4657,-6.4644,-6.4633,-6.4607,-6.4749,-6.4749,-6.4864,-6.4865,-6.4866,-6.333,-6.3395,-6.3491,-6.361,-6.3692,-6.3704,-6.3798,-6.3865,-6.3966,-6.405,-6.4138,-6.4263,-6.4365,-6.4442,-6.4547,-6.4604,-6.4613,-6.463,-6.4625,-6.4637,-6.4527,-6.4499,-6.4621,-6.4621,-6.4621,-6.4621,-6.4621,-6.4621,-6.3208,-6.3279,-6.3375,-6.3479,-6.355,-6.3629,-6.3703,-6.3765,-6.3856,-6.3971,-6.3999,-6.4112,-6.4202,-6.4345,-6.4401,-6.449,-6.4477,-6.4506,-6.4514,-6.452,-6.4523,-6.4354,-6.4509,-6.4509,-6.4509,-6.4509,-6.4509,0,-6.313,-6.316,-6.3252,-6.3359,-6.3435,-6.352,-6.3603,-6.365,-6.372,-6.3792,-6.3899,-6.3967,-6.41,-6.4204,-6.4309,-6.4361,-6.4374,-6.4379,-6.4399,-6.4387,-6.4365,-6.4379,-6.4197,-6.4373,-6.4372,-6.4371,-6.4371,-6.437,-6.3009,-6.3087,-6.3204,-6.3264,-6.3319,-6.3414,-6.3478,-6.3534,-6.3599,-6.3708,-6.3766,-6.3871,-6.3957,-6.4119,-6.4185,-6.4283,-6.4289,-6.4353,-6.4303,-6.4291,-6.429,-6.4284,-6.4293,-6.4359,-6.4361,-6.4362,-6.4363,0,-6.2938,-6.3001,-6.3132,-6.324,-6.3269,-6.3346,-6.3437,-6.3508,-6.3558,-6.3663,-6.369,-6.3766,-6.3868,-6.3924,-6.405,-6.4076,-6.4204,-6.4208,-6.4175,-6.4178,-6.4241,-6.4234,-6.4433,-6.4462,-6.4316,-6.4317,-6.4319,0,-6.2858,-6.2956,-6.3045,-6.3117,-6.3228,-6.3281,-6.3389,-6.3442,-6.3518,-6.3601,-6.3626,-6.3702,-6.3761,-6.3846,-6.3883,-6.3997,-6.402,-6.4046,-6.4054,-6.4043,-6.404,-6.4074,-6.4067,-6.407,-6.4069,-6.4068,-6.4067,0,-6.2737,-6.2898,-6.3017,-6.3063,-6.3183,-6.3238,-6.329,-6.3374,-6.3435,-6.3522,-6.3561,-6.3658,-6.371,-6.3785,-6.3831,-6.3796,-6.3972,-6.3933,-6.3998,-6.3997,-6.4031,-6.4028,-6.4193,-6.4066,-6.4066,-6.4065,-6.4065,0,-6.268,-6.277,-6.2932,-6.3033,-6.3072,-6.3149,-6.3249,-6.3327,-6.3414,-6.3443,-6.3511,-6.3532,-6.3635,-6.3593,-6.3736,-6.3677,-6.3728,-6.3762,-6.3767,-6.3777,-6.3728,-6.3812,-6.3966,-6.3983,-6.3791,-6.3789,-6.3787,0,-6.2525,-6.2704,-6.275,-6.2901,-6.2991,-6.3013,-6.31,-6.3175,-6.322,-6.3302,-6.3351,-6.3442,-6.3422,-6.3457,-6.3522,-6.3575,-6.3651,-6.3566,-6.368,-6.3684,-6.3657,-6.3799,-6.3807,-6.3927,-6.3759,-6.3762,-6.3764,0,-6.2411,-6.2557,-6.258,-6.2635,-6.2743,-6.2817,-6.2915,-6.3018,-6.307,-6.315,-6.3233,-6.3361,-6.3352,-6.3409,-6.3434,-6.3498,-6.3601,-6.3477,-6.348,-6.3498,-6.3748,-6.3756,-6.3776,-6.3604,-6.3608,-6.361,-6.3741,0,-6.2312,-6.2408,-6.2474,-6.259,-6.2656,-6.2752,-6.281,-6.2871,-6.2891,-6.2935,-6.3057,-6.3128,-6.3228,-6.3264,-6.3281,-6.3409,-6.3395,-6.3382,-6.3342,-6.3435,-6.3479,-6.3497,-6.3272,-6.3271,-6.327,-6.327,0,0,-6.2147,-6.2285,-6.2329,-6.2426,-6.2483,-6.2502,-6.26,-6.2658,-6.2772,-6.2811,-6.279,-6.298,-6.3037,-6.3178,-6.3212,-6.3251,-6.3279,-6.3242,-6.339,-6.3404,-6.3416,-6.3463,-6.3481,-6.3269,-6.3268,-6.3268,-6.3268,0,-6.2122,-6.2185,-6.2281,-6.2344,-6.2438,-6.248,-6.2503,-6.2597,-6.2629,-6.2748,-6.2758,-6.2837,-6.2985,-6.3045,-6.3095,-6.3229,-6.323,-6.3255,-6.3309,-6.3381,-6.3395,-6.3408,-6.3456,-6.3473,-6.3266,-6.3266,-6.3266,0,-6.2019,-6.2091,-6.2143,-6.2275,-6.2335,-6.2424,-6.2399,-6.2493,-6.2559,-6.2568,-6.2685,-6.2731,-6.2815,-6.294,-6.2998,-6.298,-6.3182,-6.3126,-6.3132,-6.3139,-6.3211,-6.3228,-6.3243,-6.3044,-6.3043,-6.3042,0,0,-6.1989,-6.2077,-6.2167,-6.2273,-6.2311,-6.2373,-6.2425,-6.2448,-6.2525,-6.2555,-6.2613,-6.2686,-6.2773,-6.2828,-6.2912,-6.3041,-6.3062,-6.3097,-6.3107,-6.3116,-6.3126,-6.3201,-6.3218,-6.3038,-6.3038,-6.3038,0,0,-6.1973,-6.2083,-6.2088,-6.2218,-6.2293,-6.2385,-6.2447,-6.2455,-6.2536,-6.253,-6.257,-6.2591,-6.2709,-6.2752,-6.2697,-6.2898,-6.2857,-6.2871,-6.2864,-6.2878,-6.2889,-6.2875,-6.2675,0,0,0,0,0,-6.1975,-6.207,-6.2074,-6.2104,-6.2267,-6.2384,-6.2405,-6.2442,-6.2414,-6.2462,-6.2512,-6.2509,-6.2731,-6.2683,-6.2711,-6.2771,-6.299,-6.2999,-6.3007,-6.3029,-6.3043,-6.3054,0,0,0,0,0,0,-6.1987,-6.2024,-6.2072,-6.2168,-6.2205,-6.2381,-6.2341,-6.2354,-6.241,-6.2408,-6.25,-6.2512,-6.2544,-6.2671,-6.2696,-6.2752,-6.2667,-6.2993,-6.3001,-6.3007,-6.3033,-6.3045,-6.3055,0,0,0,0,0,-6.1997,-6.2026,-6.2278,-6.2167,-6.2199,-6.2272,-6.2338,-6.2348,-6.2392,-6.2468,-6.248,-6.2415,-6.2545,-6.2568,-6.2686,-6.274,-6.2651,-6.266,-6.2998,-6.3004,-6.3009,-6.3039,0,0,0,0,0,0,-6.2004,-6.2036,-6.2285,-6.2297,-6.2133,-6.2262,-6.2284,-6.2343,-6.2449,-6.2462,-6.2384,-6.2381,-6.2546,-6.2564,-6.2582,-6.2734,-6.2637,-6.2646,-6.2652,-6.3002,-6.3007,-6.3011,0,0,0,0,0,0,-6.202,-6.2045,-6.2291,-6.2247,-6.2253,-6.2254,-6.2273,-6.2377,-6.245,-6.2358,-6.236,-6.2381,-6.2519,-6.2562,-6.2575,-6.2737,-6.2627,-6.2635,-6.2641,-6.2645,-6.3006,-6.301,0,0,0,0,0,0,-6.2031,-6.2053,-6.2244,-6.2249,-6.2254,-6.2381,-6.2346,-6.251,-6.2415,-6.2353,-6.2407,-6.2403,-6.2517,-6.2531,-6.2571,-6.2727,-6.2734,-6.2627,-6.2633,-6.2637,-6.264,0,0,0,0,0,0,0,-6.204,-6.1889,-6.222,-6.2251,-6.2255,-6.2399,-6.2402,-6.2405,-6.2414,-6.2411,-6.2408,-6.2405,-6.2577,-6.2586,-6.2596,-6.2718,0,0,-6.2626,-6.263,0,0,0,0,0,0,0,0,-6.188,-6.1886,-6.222,-6.2223,-6.2225,-6.24,-6.2402,-6.2404,-6.2413,-6.2411,-6.2408,-6.2406,-6.2579,-6.2587,-6.2595,0,0,0,0,0,0,0,0,0,0,0,0,0,0,0,-6.2221,-6.2223,0,-6.24,-6.2402,-6.2404,-6.2413,-6.2411,-6.2409,-6.2407,-6.2581,-6.2588,-6.2594,0,0,0,0,0,0,0,0,0,0,0,0,0,0,0,0,0,0,0,0,0,0,0,0,0,0,0,0,0,0,0,0,0,0,0,0,0,0,0,0,0,0,0,0,0,0,0,0,0,0,0,0,0,0,0,0,0,0,0,0,0,0,0,0,0,0,0,0,0]}]]]